| time (UTC) | temp C | wind direction | speed KPH | gust KPH | rain 1hr cm | rain 24hr cm | rain mn cm | humidity % | barometer mb |
| 20260504151016 | 20 | 284 | 3.2 | 8.0 | 0.00 | 0.00 | 0.00 | 48 | |
| 20260504150516 | 20 | 251 | 3.2 | 4.8 | 0.00 | 0.00 | 0.00 | 47 | |
| 20260504141017 | 17 | 310 | 1.6 | 4.8 | 0.00 | 0.00 | 0.00 | 57 | |
| 20260504140517 | 17 | 321 | 3.2 | 4.8 | 0.00 | 0.00 | 0.00 | 58 | |
| 20260504130517 | 16 | 168 | 0.0 | 1.6 | 0.00 | 0.00 | 0.00 | 65 | |
| 20260504110517 | 5 | 0.0 | 0.0 | 0.00 | 0.00 | 0.00 | 98 | ||
| 20260504100518 | 5 | 304 | 0.0 | 1.6 | 0.00 | 0.00 | 0.00 | 97 | |
| 20260504081536 | 6 | 0.0 | 0.0 | 0.00 | 0.00 | 0.00 | 94 | ||
| 20260504081036 | 6 | 319 | 0.0 | 1.6 | 0.00 | 0.00 | 0.00 | 93 | |
| 20260504080517 | 6 | 299 | 0.0 | 1.6 | 0.00 | 0.00 | 0.00 | 92 | |
| 20260504050516 | 9 | 315 | 0.0 | 1.6 | 0.00 | 0.00 | 0.00 | 82 | |
| 20260504045516 | 9 | 317 | 0.0 | 0.0 | 0.00 | 0.00 | 0.00 | 82 | |
| 20260504045026 | 10 | 330 | 0.0 | 1.6 | 0.00 | 0.00 | 0.00 | 81 | |
| 20260504044521 | 10 | 316 | 0.0 | 1.6 | 0.00 | 0.00 | 0.00 | 81 | |
| 20260504044020 | 10 | 311 | 0.0 | 1.6 | 0.00 | 0.00 | 0.00 | 81 | |
| 20260504043518 | 10 | 319 | 1.6 | 3.2 | 0.00 | 0.00 | 0.00 | 81 | |
| 20260504043041 | 10 | 298 | 0.0 | 0.0 | 0.00 | 0.00 | 0.00 | 80 | |
| 20260504042541 | 10 | 322 | 0.0 | 1.6 | 0.00 | 0.00 | 0.00 | 80 | |
| 20260504042018 | 10 | 309 | 1.6 | 1.6 | 0.00 | 0.00 | 0.00 | 79 | |
| 20260504041518 | 10 | 284 | 0.0 | 1.6 | 0.00 | 0.00 | 0.00 | 80 | |
| 20260504041018 | 10 | 300 | 0.0 | 1.6 | 0.00 | 0.00 | 0.00 | 80 | |
| 20260504040518 | 10 | 305 | 0.0 | 1.6 | 0.00 | 0.00 | 0.00 | 79 | |
| 20260504040018 | 10 | 340 | 0.0 | 3.2 | 0.00 | 0.00 | 0.00 | 79 | |
| 20260504035519 | 10 | 313 | 1.6 | 3.2 | 0.00 | 0.00 | 0.00 | 78 | |
| 20260504035018 | 10 | 308 | 0.0 | 0.0 | 0.00 | 0.00 | 0.00 | 77 | |
| 20260504034515 | 10 | 310 | 1.6 | 3.2 | 0.00 | 0.00 | 0.00 | 76 | |
| 20260504034015 | 10 | 322 | 0.0 | 1.6 | 0.00 | 0.00 | 0.00 | 77 | |
| 20260504033515 | 10 | 309 | 1.6 | 3.2 | 0.00 | 0.00 | 0.00 | 76 | |
| 20260504033015 | 10 | 303 | 1.6 | 3.2 | 0.00 | 0.00 | 0.00 | 76 | |
| 20260504032516 | 10 | 310 | 1.6 | 3.2 | 0.00 | 0.00 | 0.00 | 77 | |
| 20260504032016 | 11 | 284 | 0.0 | 1.6 | 0.00 | 0.00 | 0.00 | 77 | |
| 20260504031536 | 11 | 270 | 0.0 | 3.2 | 0.00 | 0.00 | 0.00 | 76 | |
| 20260504031016 | 11 | 304 | 1.6 | 3.2 | 0.00 | 0.00 | 0.00 | 75 | |
| 20260504030516 | 11 | 321 | 1.6 | 3.2 | 0.00 | 0.00 | 0.00 | 75 | |
| 20260504030016 | 11 | 330 | 1.6 | 1.6 | 0.00 | 0.00 | 0.00 | 75 | |
| 20260504025516 | 11 | 295 | 0.0 | 1.6 | 0.00 | 0.00 | 0.00 | 73 | |
| 20260504025017 | 11 | 313 | 1.6 | 3.2 | 0.00 | 0.00 | 0.00 | 73 | |
| 20260504024516 | 11 | 334 | 1.6 | 3.2 | 0.00 | 0.00 | 0.00 | 73 | |
| 20260504024016 | 11 | 302 | 0.0 | 3.2 | 0.00 | 0.00 | 0.00 | 72 | |
| 20260504023517 | 11 | 347 | 1.6 | 3.2 | 0.00 | 0.00 | 0.00 | 71 | |
| 20260504023037 | 12 | 331 | 0.0 | 3.2 | 0.00 | 0.00 | 0.00 | 70 | |
| 20260504022516 | 12 | 303 | 0.0 | 1.6 | 0.00 | 0.00 | 0.00 | 70 | |
| 20260504022017 | 12 | 332 | 0.0 | 1.6 | 0.00 | 0.00 | 0.00 | 70 | |
| 20260504021517 | 12 | 0.0 | 0.0 | 0.00 | 0.00 | 0.00 | 68 | ||
| 20260504021017 | 12 | 318 | 0.0 | 3.2 | 0.00 | 0.00 | 0.00 | 67 | |
| 20260504020517 | 12 | 314 | 0.0 | 1.6 | 0.00 | 0.00 | 0.00 | 66 | |
| 20260504020037 | 12 | 320 | 0.0 | 1.6 | 0.00 | 0.00 | 0.00 | 65 | |
| 20260504015537 | 13 | 317 | 0.0 | 3.2 | 0.00 | 0.00 | 0.00 | 64 | |
| 20260504015018 | 13 | 316 | 0.0 | 1.6 | 0.00 | 0.00 | 0.00 | 64 | |
| 20260504014517 | 13 | 284 | 0.0 | 1.6 | 0.00 | 0.00 | 0.00 | 63 | |
| 20260504014017 | 13 | 297 | 0.0 | 1.6 | 0.00 | 0.00 | 0.00 | 62 | |
| 20260504013518 | 13 | 323 | 0.0 | 4.8 | 0.00 | 0.00 | 0.00 | 61 | |
| 20260504013037 | 13 | 0.0 | 0.0 | 0.00 | 0.00 | 0.00 | 61 | ||
| 20260504012518 | 14 | 310 | 0.0 | 1.6 | 0.00 | 0.00 | 0.00 | 60 | |
| 20260504012018 | 14 | 291 | 0.0 | 1.6 | 0.00 | 0.00 | 0.00 | 59 | |
| 20260504011518 | 14 | 283 | 0.0 | 1.6 | 0.00 | 0.00 | 0.00 | 59 | |
| 20260504011018 | 15 | 345 | 0.0 | 3.2 | 0.00 | 0.00 | 0.00 | 58 | |
| 20260504010558 | 15 | 321 | 0.0 | 1.6 | 0.00 | 0.00 | 0.00 | 56 | |
| 20260504010018 | 15 | 322 | 0.0 | 1.6 | 0.00 | 0.00 | 0.00 | 56 | |
| 20260504005518 | 15 | 319 | 0.0 | 1.6 | 0.00 | 0.00 | 0.00 | 55 | |
| 20260504005018 | 16 | 316 | 1.6 | 1.6 | 0.00 | 0.00 | 0.00 | 54 | |
| 20260504004515 | 16 | 308 | 0.0 | 3.2 | 0.00 | 0.00 | 0.00 | 52 | |
| 20260504004015 | 16 | 0.0 | 0.0 | 0.00 | 0.00 | 0.00 | 50 | ||
| 20260504003515 | 16 | 0.0 | 0.0 | 0.00 | 0.00 | 0.00 | 50 | ||
| 20260504003015 | 17 | 310 | 0.0 | 1.6 | 0.00 | 0.00 | 0.00 | 49 | |
| 20260504002536 | 17 | 285 | 0.0 | 1.6 | 0.00 | 0.00 | 0.00 | 48 | |
| 20260504002016 | 17 | 0.0 | 0.0 | 0.00 | 0.00 | 0.00 | 47 | ||
| 20260504001516 | 17 | 273 | 0.0 | 0.0 | 0.00 | 0.00 | 0.00 | 46 | |
| 20260504001036 | 17 | 224 | 1.6 | 4.8 | 0.00 | 0.00 | 0.00 | 45 | |
| 20260504000516 | 18 | 297 | 1.6 | 3.2 | 0.00 | 0.00 | 0.00 | 45 | |
| 20260504000016 | 18 | 262 | 1.6 | 3.2 | 0.00 | 0.00 | 0.00 | 43 | |
| 20260503235516 | 18 | 307 | 1.6 | 3.2 | 0.00 | 0.00 | 0.00 | 43 | |
| 20260503235036 | 18 | 185 | 0.0 | 0.0 | 0.00 | 0.00 | 0.00 | 42 | |
| 20260503234537 | 19 | 314 | 3.2 | 8.0 | 0.00 | 0.00 | 0.00 | 41 | |
| 20260503234017 | 19 | 301 | 3.2 | 4.8 | 0.00 | 0.00 | 0.00 | 41 | |
| 20260503233517 | 20 | 315 | 1.6 | 3.2 | 0.00 | 0.00 | 0.00 | 40 | |
| 20260503233017 | 20 | 278 | 4.8 | 4.8 | 0.00 | 0.00 | 0.00 | 40 | |
| 20260503232517 | 20 | 272 | 3.2 | 6.4 | 0.00 | 0.00 | 0.00 | 39 | |
| 20260503232057 | 20 | 274 | 1.6 | 3.2 | 0.00 | 0.00 | 0.00 | 39 | |
| 20260503231517 | 20 | 319 | 3.2 | 4.8 | 0.00 | 0.00 | 0.00 | 38 | |
| 20260503231017 | 20 | 279 | 6.4 | 9.7 | 0.00 | 0.00 | 0.00 | 37 | |
| 20260503230517 | 21 | 255 | 3.2 | 8.0 | 0.00 | 0.00 | 0.00 | 37 | |
| 20260503230017 | 21 | 311 | 3.2 | 6.4 | 0.00 | 0.00 | 0.00 | 38 | |
| 20260503225558 | 20 | 238 | 4.8 | 6.4 | 0.00 | 0.00 | 0.00 | 38 | |
| 20260503225018 | 21 | 297 | 6.4 | 8.0 | 0.00 | 0.00 | 0.00 | 38 | |
| 20260503224517 | 21 | 271 | 4.8 | 6.4 | 0.00 | 0.00 | 0.00 | 38 | |
| 20260503224018 | 21 | 275 | 4.8 | 11.3 | 0.00 | 0.00 | 0.00 | 37 | |
| 20260503223518 | 21 | 315 | 3.2 | 6.4 | 0.00 | 0.00 | 0.00 | 37 | |
| 20260503223018 | 21 | 253 | 6.4 | 8.0 | 0.00 | 0.00 | 0.00 | 37 | |
| 20260503222518 | 21 | 250 | 6.4 | 11.3 | 0.00 | 0.00 | 0.00 | 37 | |
| 20260503222018 | 21 | 253 | 9.7 | 12.9 | 0.00 | 0.00 | 0.00 | 37 | |
| 20260503221518 | 21 | 324 | 8.0 | 12.9 | 0.00 | 0.00 | 0.00 | 38 | |
| 20260503221059 | 21 | 328 | 3.2 | 8.0 | 0.00 | 0.00 | 0.00 | 38 | |
| 20260503220518 | 21 | 241 | 4.8 | 9.7 | 0.00 | 0.00 | 0.00 | 38 | |
| 20260503220038 | 21 | 327 | 4.8 | 6.4 | 0.00 | 0.00 | 0.00 | 38 | |
| 20260503215516 | 22 | 282 | 8.0 | 11.3 | 0.00 | 0.00 | 0.00 | 38 | |
| 20260503215015 | 22 | 288 | 3.2 | 8.0 | 0.00 | 0.00 | 0.00 | 39 | |
| 20260503214516 | 21 | 267 | 4.8 | 6.4 | 0.00 | 0.00 | 0.00 | 39 | |
| 20260503214016 | 21 | 310 | 3.2 | 11.3 | 0.00 | 0.00 | 0.00 | 39 | |
| 20260503213516 | 21 | 320 | 6.4 | 11.3 | 0.00 | 0.00 | 0.00 | 39 | |
| 20260503213016 | 21 | 264 | 4.8 | 11.3 | 0.00 | 0.00 | 0.00 | 36 | |
| 20260503212516 | 21 | 293 | 6.4 | 9.7 | 0.00 | 0.00 | 0.00 | 38 | |
| 20260503212016 | 21 | 287 | 6.4 | 9.7 | 0.00 | 0.00 | 0.00 | 37 | |
| 20260503211516 | 21 | 276 | 4.8 | 6.4 | 0.00 | 0.00 | 0.00 | 37 | |
| 20260503211016 | 22 | 261 | 3.2 | 8.0 | 0.00 | 0.00 | 0.00 | 37 | |
| 20260503210516 | 22 | 306 | 9.7 | 14.5 | 0.00 | 0.00 | 0.00 | 37 | |
| 20260503210017 | 22 | 229 | 4.8 | 11.3 | 0.00 | 0.00 | 0.00 | 37 | |
| 20260503205516 | 22 | 289 | 8.0 | 14.5 | 0.00 | 0.00 | 0.00 | 35 | |
| 20260503205016 | 22 | 346 | 4.8 | 12.9 | 0.00 | 0.00 | 0.00 | 36 | |
| 20260503204517 | 21 | 267 | 6.4 | 11.3 | 0.00 | 0.00 | 0.00 | 36 | |
| 20260503204017 | 21 | 337 | 6.4 | 9.7 | 0.00 | 0.00 | 0.00 | 36 | |
| 20260503203517 | 21 | 320 | 6.4 | 9.7 | 0.00 | 0.00 | 0.00 | 38 | |
| 20260503203037 | 21 | 261 | 6.4 | 11.3 | 0.00 | 0.00 | 0.00 | 37 | |
| 20260503202517 | 22 | 322 | 8.0 | 14.5 | 0.00 | 0.00 | 0.00 | 36 | |
| 20260503202058 | 22 | 299 | 6.4 | 11.3 | 0.00 | 0.00 | 0.00 | 35 | |
| 20260503201517 | 22 | 332 | 6.4 | 14.5 | 0.00 | 0.00 | 0.00 | 36 | |
| 20260503201017 | 22 | 291 | 6.4 | 11.3 | 0.00 | 0.00 | 0.00 | 35 | |
| 20260503200517 | 21 | 259 | 6.4 | 8.0 | 0.00 | 0.00 | 0.00 | 36 | |
| 20260503200017 | 22 | 262 | 6.4 | 12.9 | 0.00 | 0.00 | 0.00 | 35 | |
| 20260503195517 | 22 | 252 | 4.8 | 8.0 | 0.00 | 0.00 | 0.00 | 36 | |
| 20260503195018 | 22 | 332 | 6.4 | 11.3 | 0.00 | 0.00 | 0.00 | 37 | |
| 20260503194517 | 22 | 311 | 6.4 | 12.9 | 0.00 | 0.00 | 0.00 | 36 | |
| 20260503194017 | 22 | 239 | 6.4 | 11.3 | 0.00 | 0.00 | 0.00 | 34 | |
| 20260503193518 | 21 | 249 | 4.8 | 6.4 | 0.00 | 0.00 | 0.00 | 35 | |
| 20260503193018 | 21 | 321 | 4.8 | 12.9 | 0.00 | 0.00 | 0.00 | 36 | |
| 20260503192518 | 21 | 241 | 3.2 | 12.9 | 0.00 | 0.00 | 0.00 | 37 | |
| 20260503192018 | 21 | 284 | 8.0 | 11.3 | 0.00 | 0.00 | 0.00 | 37 | |
| 20260503191518 | 21 | 273 | 9.7 | 14.5 | 0.00 | 0.00 | 0.00 | 36 | |
| 20260503191018 | 21 | 255 | 4.8 | 8.0 | 0.00 | 0.00 | 0.00 | 35 | |
| 20260503190518 | 21 | 282 | 4.8 | 6.4 | 0.00 | 0.00 | 0.00 | 36 | |
| 20260503190019 | 21 | 297 | 6.4 | 12.9 | 0.00 | 0.00 | 0.00 | 37 | |
| 20260503185518 | 21 | 254 | 6.4 | 12.9 | 0.00 | 0.00 | 0.00 | 35 | |
| 20260503185018 | 21 | 296 | 4.8 | 6.4 | 0.00 | 0.00 | 0.00 | 38 | |
| 20260503184518 | 20 | 284 | 4.8 | 8.0 | 0.00 | 0.00 | 0.00 | 38 | |
| 20260503184019 | 20 | 337 | 4.8 | 8.0 | 0.00 | 0.00 | 0.00 | 40 | |
| 20260503183519 | 20 | 287 | 4.8 | 8.0 | 0.00 | 0.00 | 0.00 | 40 | |
| 20260503183019 | 20 | 287 | 6.4 | 11.3 | 0.00 | 0.00 | 0.00 | 37 | |
| 20260503182519 | 20 | 274 | 4.8 | 9.7 | 0.00 | 0.00 | 0.00 | 38 | |
| 20260503182040 | 20 | 259 | 8.0 | 14.5 | 0.00 | 0.00 | 0.00 | 39 | |
| 20260503181519 | 19 | 169 | 1.6 | 12.9 | 0.00 | 0.00 | 0.00 | 42 | |
| 20260503181019 | 19 | 229 | 4.8 | 8.0 | 0.00 | 0.00 | 0.00 | 43 | |
| 20260503180539 | 20 | 272 | 8.0 | 12.9 | 0.00 | 0.00 | 0.00 | 42 | |
| 20260503180040 | 20 | 280 | 3.2 | 8.0 | 0.00 | 0.00 | 0.00 | 41 | |
| 20260503175519 | 20 | 312 | 8.0 | 12.9 | 0.00 | 0.00 | 0.00 | 41 | |
| 20260503175019 | 20 | 222 | 1.6 | 4.8 | 0.00 | 0.00 | 0.00 | 40 | |
| 20260503174516 | 19 | 227 | 4.8 | 9.7 | 0.00 | 0.00 | 0.00 | 43 | |
| 20260503174017 | 20 | 67 | 4.8 | 8.0 | 0.00 | 0.00 | 0.00 | 42 | |
| 20260503173517 | 20 | 288 | 6.4 | 12.9 | 0.00 | 0.00 | 0.00 | 41 | |
| 20260503173017 | 20 | 299 | 4.8 | 11.3 | 0.00 | 0.00 | 0.00 | 41 | |
| 20260503172517 | 18 | 86 | 3.2 | 11.3 | 0.00 | 0.00 | 0.00 | 42 | |
| 20260503172017 | 18 | 273 | 4.8 | 8.0 | 0.00 | 0.00 | 0.00 | 42 | |
| 20260503171537 | 18 | 297 | 6.4 | 12.9 | 0.00 | 0.00 | 0.00 | 42 | |
| 20260503171037 | 19 | 235 | 6.4 | 9.7 | 0.00 | 0.00 | 0.00 | 41 | |
| 20260503170538 | 18 | 279 | 3.2 | 6.4 | 0.00 | 0.00 | 0.00 | 41 |